Cloud_Cover
100 100 100 100 100 100 68 38 33 28 28 8 0 0 0 5 5 1 54 26 40 5 3 28 0 54 39 100 89 100 100 97 100 98 90 60 94 6 100 62 48 100 59 4 4
100 100 100 100 100 100 38 35 39 29 17 2 0 0 0 5 18 5 72 65 5 5 2 16 64 4 100 100 95 100 74 91 100 99 63 100 51 35 53 39 8 16 2 3 2
100 100 100 100 100 100 100 54 38 37 25 2 0 0 0 3 88 5 94 84 100 7 55 88 13 44 53 100 100 100 100 65 99 18 100 64 82 7 63 100 86 12 93 6 4
100 100 100 100 100 100 51 35 46 51 8 17 3 0 0 0 95 7 5 5 100 80 100 100 100 100 70 100 100 100 100 99 85 100 84 70 5 6 26 88 99 18 12 5 5
100 100 100 100 100 62 98 40 20 30 11 24 6 0 0 0 59 6 5 5 100 97 100 100 100 100 100 100 100 100 100 100 100 100 100 12 4 9 19 83 58 15 5 5 5
100 100 100 100 100 94 39 16 4 29 6 1 11 0 0 0 14 69 5 10 100 100 100 100 100 100 100 100 100 100 100 100 100 100 100 1 0 5 7 94 7 86 5 5 5
100 100 100 100 100 70 32 22 21 26 4 6 0 0 0 0 16 50 49 5 81 100 68 100 100 100 100 100 100 100 99 99 69 76 50 3 0 5 70 12 5 87 66 5 5
45 90 100 100 100 40 22 0 1 10 3 0 0 0 0 0 3 5 91 45 34 100 100 100 100 100 100 100 100 100 100 100 100 79 16 84 23 13 57 100 100 100 86 47 25
14 38 69 100 54 0 0 0 0 0 0 1 1 0 0 0 0 0 5 78 4 88 100 100 100 100 96 92 100 100 72 7 20 48 100 96 62 100 96 100 93 58 32 99 96
13 12 8 100 90 0 0 0 0 0 0 0 0 0 0 0 0 0 0 1 12 41 100 100 100 100 100 44 72 100 26 5 79 100 82 77 61 4 51 71 8 5 5 23 100
3 0 4 100 98 0 9 0 0 0 0 0 0 0 0 0 0 0 0 0 0 0 100 100 100 100 100 42 84 5 100 2 5 11 24 100 100 2 22 5 4 5 0 1 91
0 0 0 100 100 11 14 0 0 0 0 0 0 0 0 0 0 0 0 0 0 0 2 50 98 90 100 78 84 100 100 20 5 40 78 60 19 6 4 1 4 5 0 1 46
0 0 0 88 100 39 0 0 0 0 0 0 0 0 0 0 0 0 0 0 0 0 0 5 47 28 2 5 66 88 100 33 2 4 39 63 67 96 12 7 8 5 19 27 34
0 0 0 96 21 0 0 0 0 0 0 0 0 0 0 0 0 0 0 0 0 0 0 0 5 93 63 41 87 72 3 20 69 2 2 0 6 94 10 26 14 4 41 3 0
0 0 0 94 24 0 0 0 0 0 0 0 0 0 0 0 0 0 0 0 0 0 0 0 0 3 1 8 0 0 0 0 0 0 40 10 27 100 100 39 5 14 84 50 30
0 0 17 16 6 0 0 0 4 0 0 0 0 0 0 0 0 0 0 0 0 0 0 0 0 0 0 0 0 0 0 0 1 12 4 5 41 99 95 100 32 92 100 16 31
0 0 84 0 0 0 1 9 2 0 5 2 0 0 0 0 0 0 0 0 0 0 0 0 1 0 0 0 0 0 0 4 75 96 92 88 40 98 97 100 99 99 100 100 43
0 3 1 0 0 0 0 24 49 46 62 1 0 0 0 0 0 0 0 0 0 0 0 32 4 3 0 0 0 0 92 99 60 91 73 99 100 98 100 98 100 100 100 100 100
0 0 0 0 0 0 0 3 11 41 67 99 0 0 0 0 0 0 0 0 0 0 61 43 8 96 81 0 0 0 3 2 100 99 100 16 100 100 100 100 100 100 100 100 100
0 0 0 0 0 0 0 16 60 73 84 61 79 60 98 87 2 0 0 0 0 28 100 98 99 85 93 6 0 0 0 56 96 89 100 60 36 71 100 100 100 100 100 100 100
0 0 0 0 0 0 0 38 100 100 17 100 81 94 26 77 46 84 4 76 20 12 8 5 4 92 91 79 79 80 0 0 2 99 100 92 53 97 100 100 100 100 100 100 100
0 0 0 0 0 0 0 72 4 95 12 2 1 99 65 100 99 7 99 12 100 42 0 4 2 2 100 97 75 0 0 0 0 97 86 85 39 75 100 100 100 100 100 100 100
0 0 0 0 0 0 0 0 6 99 100 77 7 5 100 100 100 84 100 4 52 44 1 0 0 3 100 28 35 7 11 0 0 99 29 1 100 75 74 100 100 100 100 100 100
0 0 0 0 0 0 0 0 1 80 100 46 3 0 3 94 96 100 10 91 53 84 36 4 0 1 6 32 14 6 70 0 0 19 7 4 95 90 100 100 100 100 100 100 100
0 0 0 0 0 0 0 0 0 4 16 5 15 0 0 0 10 32 54 15 99 38 13 0 0 1 5 10 83 93 2 2 0 0 4 4 9 100 100 100 100 100 100 100 100
0 0 0 0 0 0 0 0 0 2 94 100 96 0 1 0 0 0 0 82 98 38 5 0 0 0 0 4 8 1 1 0 0 0 0 0 1 99 100 100 100 100 100 100 100
0 0 0 0 0 0 0 0 0 0 2 75 6 9 77 2 0 0 0 2 9 24 81 4 0 0 0 0 38 61 5 100 100 5 0 0 25 64 100 100 75 100 100 100 100